Sibiu, Romania

2:34 PM EEST on June 27, 2017 (GMT +0300)
Sibiu

Weather History for LRSB - January, 2014

Change the Weather History Date:

Saturday, January 25, 2014

  Actual Average (LRTM) Record (LRTM)
Temperature  
Mean Temperature 26 °F -  
Max Temperature 30 °F 39 °F 48 °F (2007)
Min Temperature 21 °F 21 °F -9 °F (2006)
Degree Days  
Heating Degree Days 39    
Moisture  
Dew Point 27 °F    
Average Humidity 89    
Maximum Humidity 100    
Minimum Humidity 55    
Precipitation  
Precipitation 0.08 in 0.03 in - ()
Sea Level Pressure  
Sea Level Pressure 29.82 in    
Wind  
Wind Speed 10 mph ()    
Max Wind Speed 22 mph    
Max Gust Speed -    
Visibility 3.5 miles    
Events Rain , Snow    
Averages and records for this station are not official NWS values.
T = Trace of Precipitation, MM = Missing Value Source: Averaged Metar Reports

Daily Weather History Graph

Daily Weather History Graph

Search for Another Location

Airport or City:

Trip Planner

Search our weather history database for the weather conditions in past years. The results will help you decide how hot, cold, wet, or windy it might be!

Date:

Astronomy

Jan. 25, 2014 Rise Set
Actual Time 7:53 AM EET 5:18 PM EET
Civil Twilight 7:20 AM EET 5:51 PM EET
Nautical Twilight 6:44 AM EET 6:27 PM EET
Astronomical Twilight 6:09 AM EET 7:02 PM EET
Moon 2:02 AM EET (1/25) 12:06 PM EET (1/25)
Length of Visible Light 10h 30m
Length of Day
9h 25m
Last Quarter, 37% of the Moon is Illuminated
Jan 25
Last Quarter
Jan 30
New
Feb 6
First Quarter
Feb 15
Full
Feb 22
Last Quarter

Hourly Weather History & Observations

Time (EET) Temp. Windchill Dew Point Humidity Pressure Visibility Wind Dir Wind Speed Gust Speed Precip Events Conditions
12:00 AM 40 °F - 29 °F 55% 29.81 in 6 mi SSE 22.4 mph - -   Partly Cloudy
12:00 AM 41.0 °F 31.4 °F 30.2 °F 65% 29.77 in 6.2 mi SSE 21.9 mph - N/A   Scattered Clouds
1:00 AM 40 °F - 30 °F 58% 29.81 in 6 mi SE 17.9 mph - -   Mostly Cloudy
1:00 AM 39.2 °F 29.6 °F 30.2 °F 70% 29.77 in 6.2 mi SSE 19.6 mph - N/A   Scattered Clouds
2:00 AM 40 °F - 31 °F 60% 29.80 in 12 mi SE 15.7 mph - -   Mostly Cloudy
2:00 AM 39.2 °F 29.8 °F 30.2 °F 70% 29.74 in 6.2 mi SSE 18.4 mph - N/A   Scattered Clouds
3:00 AM 37 °F - 32 °F 74% 29.81 in 12 mi East 11.2 mph - -   Mostly Cloudy
3:00 AM 35.6 °F 28.6 °F 32.0 °F 87% 29.74 in 6.2 mi ESE 9.2 mph - N/A   Scattered Clouds
4:00 AM 35 °F - 33 °F 87% 29.82 in 12 mi ENE 6.7 mph - -   Mostly Cloudy
4:00 AM 33.8 °F 26.4 °F 32.0 °F 93% 29.74 in 6.2 mi East 9.2 mph - N/A Rain Light Rain
5:00 AM 34 °F - 32 °F 88% 29.82 in 6 mi East 6.7 mph - -   Mostly Cloudy
5:00 AM 33.8 °F 26.4 °F 28.4 °F 81% 29.74 in 5.6 mi East 9.2 mph - N/A Snow Light Snow
5:30 AM 33.8 °F 26.4 °F 30.2 °F 87% 29.74 in 6.2 mi East 9.2 mph - N/A Snow Light Snow
6:00 AM 33 °F - 30 °F 82% 29.82 in 6 mi East 6.7 mph - -   Mostly Cloudy
6:00 AM 32.0 °F 24.2 °F 30.2 °F 93% 29.74 in 3.7 mi ESE 9.2 mph - N/A Snow Light Snow
6:30 AM 32.0 °F 24.2 °F 30.2 °F 93% 29.74 in 2.5 mi East 9.2 mph - N/A Snow Light Snow
7:00 AM 32 °F - 31 °F 95% 29.82 in 6 mi East 4.5 mph - - Snow Light Snow Showers
7:00 AM 30.2 °F 21.9 °F 30.2 °F 100% 29.74 in 2.5 mi ESE 9.2 mph - N/A Snow Light Snow
7:30 AM 30.2 °F 21.9 °F 30.2 °F 100% 29.74 in 2.5 mi ESE 9.2 mph - N/A Snow Light Snow
8:00 AM 30 °F - 30 °F 98% 29.83 in 2 mi East 6.7 mph - - Snow Light Snow Showers
8:00 AM 30.2 °F 20.8 °F 28.4 °F 93% 29.74 in 2.5 mi ESE 11.5 mph - N/A Snow Light Snow
8:30 AM 30.2 °F 21.9 °F 28.4 °F 93% 29.74 in 3.1 mi ESE 9.2 mph - N/A Snow Light Snow
9:00 AM 30 °F - 29 °F 94% 29.83 in 2 mi East 8.9 mph - - Snow Light Snow
9:00 AM 30.2 °F 20.8 °F 28.4 °F 93% 29.74 in 6.2 mi ESE 11.5 mph - N/A Snow Light Snow
9:30 AM 28.4 °F 18.5 °F 24.8 °F 86% 29.77 in 6.2 mi ESE 11.5 mph - N/A Snow Light Snow
10:00 AM 29 °F - 26 °F 86% 29.85 in 2 mi ESE 13.4 mph - - Snow Light Snow
10:00 AM 28.4 °F 17.5 °F 24.8 °F 86% 29.77 in 6.2 mi ESE 13.8 mph - N/A Snow Light Snow
10:30 AM 28.4 °F 18.5 °F 24.8 °F 86% 29.80 in 6.2 mi ESE 11.5 mph - N/A Snow Light Snow
11:00 AM 29 °F - 26 °F 82% 29.87 in 2 mi ESE 13.4 mph - -   Mist
11:00 AM 28.4 °F 18.5 °F 24.8 °F 86% 29.80 in 5.0 mi ESE 11.5 mph - N/A Snow Light Snow
11:30 AM 28.4 °F 21.2 °F 24.8 °F 86% 29.80 in 5.0 mi SSE 6.9 mph - N/A Snow Light Snow
12:00 PM 29 °F - 26 °F 82% 29.88 in 2 mi SE 8.9 mph - -   Mist
12:00 PM 28.4 °F 21.2 °F 24.8 °F 86% 29.80 in 3.1 mi SSE 6.9 mph - N/A Snow Light Snow
12:30 PM 28.4 °F 21.2 °F 24.8 °F 86% 29.80 in - SE 6.9 mph - N/A Snow Light Snow
1:00 PM 29 °F - 26 °F 82% 29.88 in 2 mi ESE 6.7 mph - - Snow Light Snow
1:00 PM 28.4 °F 21.2 °F 26.6 °F 93% 29.80 in 1.2 mi SSE 6.9 mph - N/A Snow Light Snow
1:30 PM 28.4 °F 23.3 °F 26.6 °F 93% 29.80 in 1.2 mi SE 4.6 mph - N/A Snow Light Snow
2:00 PM 27 °F - 27 °F 98% 29.88 in 1 mi ESE 6.7 mph - - Snow Light Snow
2:00 PM 26.6 °F 21.2 °F 26.6 °F 100% 29.80 in 2.2 mi SSE 4.6 mph - N/A Snow Light Snow
2:30 PM 28.4 °F 23.3 °F 26.6 °F 93% 29.80 in 1.9 mi SE 4.6 mph - N/A Snow Light Snow
3:00 PM 27 °F - 26 °F 95% 29.88 in 1 mi SE 4.5 mph - - Snow Light Snow
3:00 PM 26.6 °F 19.1 °F 24.8 °F 93% 29.80 in 1.6 mi SE 6.9 mph - N/A Snow Light Snow
3:30 PM 26.6 °F 19.1 °F 24.8 °F 93% 29.80 in 1.2 mi SE 6.9 mph - N/A Snow Light Snow
4:00 PM 27 °F - 26 °F 94% 29.89 in 1 mi ESE 6.7 mph - - Snow Light Snow
4:00 PM 26.6 °F 19.1 °F 24.8 °F 93% 29.80 in 1.1 mi SE 6.9 mph - N/A Snow Light Snow
4:30 PM 26.6 °F 19.1 °F 24.8 °F 93% 29.80 in 1.1 mi ESE 6.9 mph - N/A Snow Light Snow
5:00 PM 26 °F - 26 °F 97% 29.90 in 1 mi ESE 6.7 mph - - Snow Light Snow
5:00 PM 24.8 °F 15.3 °F 24.8 °F 100% 29.80 in 0.9 mi ESE 9.2 mph - N/A Snow Snow
5:30 PM 24.8 °F 16.9 °F 24.8 °F 100% 29.83 in 1.2 mi SE 6.9 mph - N/A Snow Light Snow
6:00 PM 25 °F - 25 °F 98% 29.91 in 1 mi ESE 4.5 mph - - Snow Light Snow
6:00 PM 24.8 °F 19.1 °F 23.0 °F 93% 29.83 in 1.7 mi SE 4.6 mph - N/A Snow Light Snow
6:30 PM 24.8 °F 19.1 °F 23.0 °F 93% 29.83 in 1.9 mi ESE 4.6 mph - N/A Snow Light Snow
7:00 PM 25 °F - 24 °F 93% 29.93 in 1 mi East 4.5 mph - - Snow Light Snow
7:00 PM 24.8 °F 16.9 °F 23.0 °F 93% 29.83 in 3.1 mi ESE 6.9 mph - N/A Snow Light Snow
7:30 PM 24.8 °F 15.3 °F 23.0 °F 93% 29.83 in 6.2 mi ESE 9.2 mph - N/A Snow Light Snow
8:00 PM 24 °F - 23 °F 93% 29.94 in 1 mi East 6.7 mph - - Snow Light Snow
8:00 PM 23.0 °F 14.7 °F 21.2 °F 93% 29.83 in 1.9 mi East 6.9 mph - N/A Snow Light Snow
8:30 PM 23.0 °F 14.7 °F 21.2 °F 93% 29.83 in 2.5 mi ESE 6.9 mph - N/A Snow Light Snow
9:00 PM 23 °F - 22 °F 94% 29.95 in 1 mi ESE 6.7 mph - - Snow Light Snow
9:00 PM 23.0 °F 17.0 °F 21.2 °F 93% 29.83 in 3.1 mi SE 4.6 mph - N/A Snow Light Snow
10:00 PM 23 °F - 21 °F 89% 29.96 in 1 mi East 6.7 mph - - Snow Light Snow
10:00 PM 23.0 °F 14.7 °F 21.2 °F 93% 29.86 in 1.9 mi ESE 6.9 mph - N/A Snow Light Snow
11:00 PM 22 °F - 21 °F 93% 29.97 in 1 mi East 6.7 mph - - Snow Light Snow
11:00 PM 21.2 °F 12.6 °F 19.4 °F 93% 29.86 in 1.9 mi SE 6.9 mph - N/A Snow Light Snow